EN

Hourly Weather Dzierzgonka

Today, 31 October, Saturday

Time Temperature Precipitation Wind Pressure Humidity
00:00 +7°C° 0 mm 1 mps 764 mmHg 91%
01:00 +7°C° 0 mm 1 mps 764 mmHg 91%
02:00 +7°C° 0 mm 1 mps 764 mmHg 91%
03:00 +7°C° 0 mm 1 mps 765 mmHg 92%
04:00 +7°C° 0 mm 1 mps 765 mmHg 92%
05:00 +7°C° 0 mm 1 mps 765 mmHg 92%
06:00 +7°C° 0 mm 1 mps 766 mmHg 92%
07:00 +7°C° 0 mm 1 mps 766 mmHg 93%
08:00 +8°C° 0 mm 1 mps 766 mmHg 88%
09:00 +10°C° 0 mm 1 mps 767 mmHg 83%
10:00 +11°C° 0 mm 1 mps 767 mmHg 78%
11:00 +12°C° 0 mm 1 mps 767 mmHg 74%
12:00 +12°C° 0 mm 1 mps 767 mmHg 71%
13:00 +12°C° 0 mm 0 mps 767 mmHg 68%
14:00 +11°C° 0 mm 0 mps 767 mmHg 72%
15:00 +10°C° 0 mm 0 mps 767 mmHg 77%
16:00 +9°C° 0 mm 0 mps 767 mmHg 82%
17:00 +9°C° 0 mm 1 mps 767 mmHg 84%
18:00 +9°C° 0 mm 1 mps 767 mmHg 86%
19:00 +7°C° 0 mm 2 mps 767 mmHg 88%
20:00 +7°C° 0 mm 2 mps 767 mmHg 89%
21:00 +7°C° 0 mm 2 mps 767 mmHg 90%
22:00 +6°C° 0 mm 2 mps 767 mmHg 90%
23:00 +5°C° 0 mm 3 mps 767 mmHg 91%

Tomorrow, 1 November, Sunday

Time Temperature Precipitation Wind Pressure Humidity
00:00 +5°C° 0 mm 3 mps 767 mmHg 92%
01:00 +5°C° 0 mm 3 mps 767 mmHg 92%
02:00 +5°C° 0 mm 3 mps 766 mmHg 92%
03:00 +5°C° 0 mm 4 mps 766 mmHg 92%
04:00 +4°C° 0 mm 4 mps 765 mmHg 92%
05:00 +4°C° 0 mm 4 mps 765 mmHg 92%
06:00 +4°C° 0 mm 4 mps 765 mmHg 91%
07:00 +4°C° 0 mm 4 mps 765 mmHg 91%
08:00 +6°C° 0 mm 5 mps 764 mmHg 83%
09:00 +7°C° 0 mm 5 mps 764 mmHg 75%
10:00 +9°C° 0 mm 6 mps 764 mmHg 67%
11:00 +9°C° 0 mm 6 mps 763 mmHg 64%
12:00 +10°C° 0 mm 6 mps 762 mmHg 60%
13:00 +11°C° 0 mm 6 mps 762 mmHg 57%
14:00 +10°C° 0 mm 5 mps 761 mmHg 61%
15:00 +9°C° 0 mm 5 mps 761 mmHg 66%
16:00 +9°C° 0 mm 5 mps 760 mmHg 70%
17:00 +9°C° 0.2 mm 5 mps 760 mmHg 75%
18:00 +9°C° 0.2 mm 5 mps 759 mmHg 80%
19:00 +8°C° 0.2 mm 5 mps 759 mmHg 85%
20:00 +9°C° 0.7 mm 5 mps 759 mmHg 88%
21:00 +9°C° 0.7 mm 5 mps 758 mmHg 92%
22:00 +9°C° 0.7 mm 5 mps 758 mmHg 95%
23:00 +11°C° 0.4 mm 4 mps 758 mmHg 95%

Day after tomorrow, 2 November, Monday

Time Temperature Precipitation Wind Pressure Humidity
00:00 +11°C° 0.4 mm 4 mps 757 mmHg 96%
01:00 +11°C° 0.4 mm 4 mps 757 mmHg 96%
02:00 +11°C° 0.3 mm 4 mps 757 mmHg 96%
03:00 +11°C° 0.3 mm 4 mps 757 mmHg 95%
04:00 +11°C° 0.3 mm 4 mps 757 mmHg 95%
05:00 +11°C° 0 mm 4 mps 757 mmHg 95%
06:00 +11°C° 0 mm 4 mps 757 mmHg 96%
07:00 +11°C° 0 mm 3 mps 758 mmHg 96%
08:00 +12°C° 0 mm 3 mps 758 mmHg 91%
09:00 +13°C° 0 mm 3 mps 758 mmHg 86%
10:00 +13°C° 0 mm 3 mps 758 mmHg 81%
11:00 +13°C° 0 mm 3 mps 759 mmHg 78%
12:00 +13°C° 0 mm 3 mps 759 mmHg 75%
13:00 +13°C° 0 mm 3 mps 759 mmHg 72%
14:00 +13°C° 0 mm 3 mps 759 mmHg 75%
15:00 +13°C° 0 mm 3 mps 759 mmHg 78%
16:00 +12°C° 0 mm 4 mps 759 mmHg 81%
17:00 +12°C° 0 mm 4 mps 759 mmHg 84%
18:00 +12°C° 0 mm 4 mps 759 mmHg 87%
19:00 +12°C° 0 mm 5 mps 759 mmHg 90%
20:00 +12°C° 0 mm 5 mps 759 mmHg 92%
21:00 +13°C° 0 mm 5 mps 759 mmHg 94%
22:00 +13°C° 0 mm 5 mps 759 mmHg 95%
23:00 +13°C° 0 mm 5 mps 759 mmHg 95%

3 November, Tuesday

Time Temperature Precipitation Wind Pressure Humidity
00:00 +14°C° 0 mm 5 mps 759 mmHg 95%
01:00 +14°C° 0 mm 5 mps 759 mmHg 95%
02:00 +14°C° 0 mm 5 mps 759 mmHg 95%
03:00 +14°C° 0 mm 4 mps 759 mmHg 94%
04:00 +13°C° 0 mm 4 mps 759 mmHg 93%
05:00 +14°C° 0 mm 4 mps 760 mmHg 93%
06:00 +14°C° 0 mm 4 mps 760 mmHg 93%
07:00 +14°C° 0 mm 3 mps 761 mmHg 93%
08:00 +14°C° 0 mm 4 mps 761 mmHg 85%
09:00 +14°C° 0 mm 4 mps 762 mmHg 77%
10:00 +14°C° 0 mm 4 mps 762 mmHg 69%
11:00 +14°C° 0 mm 5 mps 763 mmHg 66%
12:00 +14°C° 0 mm 5 mps 763 mmHg 62%
13:00 +14°C° 0 mm 6 mps 764 mmHg 59%
14:00 +13°C° 0 mm 5 mps 764 mmHg 62%
15:00 +12°C° 0 mm 4 mps 765 mmHg 65%
16:00 +11°C° 0 mm 4 mps 765 mmHg 68%
17:00 +11°C° 0 mm 4 mps 765 mmHg 69%
18:00 +10°C° 0 mm 4 mps 766 mmHg 69%
19:00 +10°C° 0 mm 4 mps 766 mmHg 70%
20:00 +8°C° 0 mm 4 mps 767 mmHg 71%
21:00 +8°C° 0 mm 4 mps 767 mmHg 72%
22:00 +7°C° 0 mm 4 mps 767 mmHg 73%
23:00 +7°C° 0 mm 4 mps 767 mmHg 73%

4 November, Wednesday

Time Temperature Precipitation Wind Pressure Humidity
00:00 +7°C° 0 mm 4 mps 767 mmHg 72%
01:00 +6°C° 0 mm 4 mps 767 mmHg 71%
02:00 +6°C° 0 mm 4 mps 768 mmHg 73%
03:00 +6°C° 0 mm 4 mps 768 mmHg 75%
04:00 +5°C° 0 mm 5 mps 768 mmHg 78%
05:00 +5°C° 0 mm 4 mps 768 mmHg 80%
06:00 +5°C° 0 mm 4 mps 768 mmHg 82%
07:00 +4°C° 0 mm 4 mps 769 mmHg 84%
08:00 +5°C° 0 mm 5 mps 769 mmHg 79%
09:00 +6°C° 0 mm 5 mps 769 mmHg 73%
10:00 +7°C° 0 mm 5 mps 770 mmHg 68%
11:00 +8°C° 0 mm 5 mps 770 mmHg 66%
12:00 +8°C° 0 mm 5 mps 770 mmHg 64%
13:00 +9°C° 0 mm 5 mps 770 mmHg 63%
14:00 +8°C° 0 mm 4 mps 770 mmHg 67%
15:00 +8°C° 0 mm 3 mps 771 mmHg 72%
16:00 +7°C° 0 mm 2 mps 771 mmHg 77%
17:00 +7°C° 0 mm 2 mps 771 mmHg 79%
18:00 +6°C° 0 mm 2 mps 771 mmHg 81%
19:00 +6°C° 0 mm 2 mps 772 mmHg 83%
20:00 +6°C° 0 mm 2 mps 772 mmHg 83%
21:00 +6°C° 0 mm 2 mps 772 mmHg 84%
22:00 +6°C° 0 mm 2 mps 772 mmHg 84%
23:00 +6°C° 0 mm 2 mps 772 mmHg 85%

5 November, Thursday

Time Temperature Precipitation Wind Pressure Humidity
00:00 +5°C° 0 mm 2 mps 772 mmHg 86%
01:00 +5°C° 0 mm 2 mps 772 mmHg 87%
02:00 +5°C° 0 mm 2 mps 772 mmHg 89%
03:00 +5°C° 0 mm 2 mps 772 mmHg 91%
04:00 +4°C° 0 mm 2 mps 772 mmHg 93%
05:00 +4°C° 0 mm 2 mps 773 mmHg 93%
06:00 +3°C° 0 mm 3 mps 773 mmHg 94%
07:00 +3°C° 0 mm 3 mps 773 mmHg 94%
08:00 +4°C° 0 mm 3 mps 773 mmHg 89%
09:00 +5°C° 0 mm 3 mps 773 mmHg 83%
10:00 +7°C° 0 mm 3 mps 773 mmHg 78%
11:00 +8°C° 0 mm 3 mps 773 mmHg 75%
12:00 +9°C° 0 mm 3 mps 773 mmHg 72%
13:00 +9°C° 0 mm 3 mps 774 mmHg 70%
14:00 +9°C° 0 mm 3 mps 774 mmHg 74%
15:00 +8°C° 0 mm 3 mps 774 mmHg 78%
16:00 +7°C° 0 mm 3 mps 774 mmHg 83%
17:00 +5°C° 0 mm 3 mps 774 mmHg 85%
18:00 +5°C° 0 mm 3 mps 774 mmHg 87%
19:00 +4°C° 0 mm 3 mps 774 mmHg 89%
20:00 +4°C° 0 mm 3 mps 774 mmHg 89%
21:00 +4°C° 0 mm 3 mps 775 mmHg 90%
22:00 +4°C° 0 mm 3 mps 775 mmHg 91%
23:00 +4°C° 0 mm 3 mps 775 mmHg 90%
Show more